Temp
21 22 22 22 22 22 22 22 22 22 22 22 22 22 22 23 23 23 24 24 24 23 23 23 23 24 23 24 24 24 24 24 24 24 23 22 21 22 22 23 23 23 24 24 24 25 24 23 22 21 22 22 20 19 20 18 18 21 23 23 22 21 21 22 21 19 21 23 21 19 19 21 20 16 14 14 14 14 13 13 11 10 10 9 10 10 11 12
21 22 22 22 22 22 22 22 22 22 22 22 22 22 22 22 23 23 24 24 24 24 24 23 23 24 23 24 24 24 24 24 24 23 22 21 22 22 23 23 23 23 24 24 24 24 24 23 20 20 23 23 20 20 21 19 19 21 22 22 22 22 21 21 21 20 21 23 22 19 18 19 20 18 15 17 17 13 15 14 11 11 11 9 9 10 11 11
21 21 22 22 22 22 22 22 22 22 22 22 22 22 22 22 22 23 24 24 24 24 24 24 24 24 24 24 23 24 24 24 24 23 22 22 22 22 23 23 23 23 24 24 24 23 23 23 20 21 24 24 20 20 22 20 20 20 21 23 23 22 22 20 20 20 20 21 21 20 17 17 18 17 16 18 17 14 16 16 13 13 12 10 10 9 10 10
21 21 21 22 22 22 22 22 22 22 22 22 22 22 22 22 22 23 23 24 24 24 24 24 24 24 24 24 23 23 24 24 25 23 22 22 22 22 23 23 23 23 23 23 24 23 22 21 19 21 24 24 20 20 22 20 20 20 20 24 22 20 22 22 20 20 19 18 21 20 18 18 17 15 16 17 17 16 16 16 16 16 13 11 10 8 8 9
21 21 21 21 22 22 22 22 22 22 22 22 22 22 22 22 22 22 23 24 24 24 24 24 24 24 24 24 23 23 24 25 25 22 22 22 22 22 23 23 23 23 23 24 23 22 23 20 19 22 23 23 22 22 22 19 19 21 20 20 20 19 21 22 20 19 18 17 19 20 20 19 16 15 16 16 20 20 16 15 15 15 12 11 10 8 7 7
21 21 21 21 21 21 22 22 22 22 22 22 22 22 22 23 23 23 23 24 24 24 24 24 24 24 24 23 23 23 24 25 23 21 23 22 22 23 23 23 23 23 23 24 23 22 23 21 21 23 22 22 21 22 22 18 18 22 21 18 18 18 21 22 20 19 18 19 20 20 19 17 16 18 16 15 19 19 14 12 13 12 11 10 9 7 7 7
21 21 21 21 21 21 21 21 22 22 22 22 23 22 22 23 23 23 23 23 24 24 24 24 24 24 23 23 23 23 23 24 22 21 23 22 23 23 23 23 23 23 23 24 23 22 22 22 23 22 22 22 20 20 21 19 19 22 22 20 18 17 20 21 20 19 18 20 19 17 17 17 18 19 15 15 17 16 11 9 9 10 9 8 8 7 7 6
20 20 21 21 21 21 21 21 21 22 22 22 22 22 22 23 23 23 23 23 24 24 24 24 23 23 23 23 23 23 23 23 22 22 22 22 23 23 23 23 23 23 23 23 22 22 22 22 21 19 22 22 20 20 20 20 21 21 21 20 19 18 20 20 19 19 19 19 16 15 18 18 17 15 14 16 17 13 10 8 8 8 7 7 8 8 6 5
20 20 20 21 21 21 21 21 21 22 22 22 22 22 22 22 22 23 23 23 23 24 23 23 23 23 23 22 21 24 24 22 21 22 22 22 23 23 23 23 23 24 23 22 21 22 23 22 20 20 22 21 19 20 20 22 22 20 20 19 19 19 20 19 19 20 18 17 15 16 19 17 14 14 16 17 15 11 9 9 9 8 8 8 8 8 6 6
19 19 20 20 21 21 21 21 21 22 22 22 22 22 22 22 22 22 23 23 23 24 23 23 23 22 23 22 21 24 23 21 22 22 22 23 23 23 23 23 23 23 22 21 21 21 22 22 19 18 21 20 19 19 19 21 21 19 19 19 19 19 18 17 18 18 17 16 16 17 19 16 13 14 18 16 10 9 10 9 8 8 9 8 8 7 5 5
19 19 19 20 20 21 21 21 21 21 22 22 22 22 22 22 22 22 23 23 23 23 23 23 23 23 23 22 23 24 22 21 22 21 22 22 23 23 22 22 22 23 22 20 19 20 21 20 17 17 21 20 20 19 18 19 19 18 18 19 19 18 17 16 18 17 16 17 16 17 18 16 13 15 19 15 8 9 10 9 8 8 8 7 8 7 5 5
18 18 19 19 20 20 20 21 21 21 22 22 22 22 22 22 22 22 23 23 23 23 23 23 22 22 22 21 22 23 21 21 21 21 22 22 22 22 21 22 22 22 22 20 19 19 20 19 18 20 21 20 20 21 19 17 17 18 18 20 21 20 19 17 17 16 17 19 16 17 19 17 16 17 17 12 8 8 10 9 8 8 8 7 8 7 6 5
17 17 18 18 19 19 20 20 21 21 21 22 22 22 22 22 22 22 23 23 23 23 23 23 22 22 22 23 22 21 21 21 21 21 22 22 21 21 21 21 21 21 22 21 19 19 19 19 19 20 19 20 21 20 18 17 17 18 18 19 21 22 21 18 17 16 17 18 16 17 21 20 19 19 15 9 8 9 9 9 8 8 7 7 7 7 7 5
16 17 17 18 18 19 19 20 20 20 21 21 22 22 22 22 22 22 22 22 23 23 23 22 22 22 22 23 22 20 21 21 21 21 21 21 21 20 20 20 20 20 20 20 19 18 19 19 19 19 17 18 19 18 19 18 18 19 19 18 18 20 21 19 17 17 19 17 16 18 20 20 21 20 15 8 8 10 11 10 8 8 7 7 7 7 7 6
15 16 16 17 18 18 19 19 19 20 20 21 21 22 22 22 22 22 22 22 22 23 23 22 22 21 21 22 21 20 21 21 21 20 20 21 21 20 20 20 20 19 19 19 19 18 18 19 19 19 18 16 18 20 21 20 19 18 20 20 18 18 21 20 16 16 19 17 15 19 20 19 20 19 14 8 8 10 11 11 8 8 7 7 7 6 7 6
14 15 16 16 17 17 18 18 19 19 20 20 21 22 22 23 22 22 22 22 22 22 22 22 21 21 22 22 21 20 20 20 20 20 20 20 20 20 19 19 19 18 19 18 18 18 18 19 17 16 18 18 19 21 21 20 20 18 19 21 20 19 20 20 18 15 17 18 17 18 20 20 20 17 11 7 8 9 10 11 9 8 7 7 7 6 6 6
13 14 15 16 16 17 17 18 18 19 19 20 21 22 23 23 23 22 21 21 22 21 21 21 21 21 22 21 21 21 20 19 19 19 20 19 20 20 19 18 16 17 18 17 18 18 18 18 16 16 18 18 18 20 21 20 21 19 18 20 19 19 19 20 20 16 15 18 18 18 18 19 20 18 13 9 8 9 10 10 10 8 7 7 6 6 6 6
12 13 14 15 16 16 17 17 18 18 19 20 20 22 23 23 23 21 21 21 21 21 21 21 21 22 23 22 21 20 18 18 19 19 19 19 19 20 19 18 16 17 19 19 19 19 19 18 18 19 20 18 18 20 21 20 21 20 19 20 19 18 18 18 19 18 16 18 18 17 17 17 18 18 16 12 8 9 10 10 10 9 7 7 6 6 6 6
12 12 13 14 15 16 16 17 17 18 19 20 20 22 23 22 22 21 21 21 21 22 22 22 22 23 23 21 18 18 17 18 18 18 18 18 19 19 19 18 17 19 20 20 21 19 19 19 19 21 21 21 21 21 21 21 21 20 19 19 19 18 18 17 18 17 16 17 17 16 17 17 18 18 18 14 8 9 10 9 9 9 8 7 7 6 6 6
11 11 12 13 14 15 16 16 17 18 18 19 20 21 22 21 22 22 21 21 21 21 22 21 21 22 21 19 17 17 18 18 18 18 18 18 19 19 18 18 18 20 20 21 21 17 16 21 21 21 23 23 22 20 20 19 18 19 18 18 18 18 17 17 18 16 14 17 17 17 16 16 17 17 18 16 11 9 9 8 9 9 8 8 7 7 6 6
10 11 12 12 14 15 15 16 16 17 18 18 19 20 20 19 20 21 19 20 19 15 18 19 16 18 19 17 17 17 19 19 18 17 18 18 19 20 20 19 20 21 18 18 19 16 16 20 21 22 22 20 19 17 17 17 17 18 18 18 17 16 16 17 16 14 13 15 16 16 15 15 16 16 17 16 14 12 10 10 10 9 8 8 7 7 7 6
10 10 10 11 13 14 15 16 16 17 18 18 19 18 16 15 17 16 16 19 18 11 13 14 13 15 16 15 16 17 19 20 19 18 17 17 18 20 20 19 20 20 18 17 19 19 19 20 21 20 17 16 15 14 16 18 17 17 17 17 17 16 16 17 15 13 13 14 15 16 14 15 15 16 16 17 16 15 13 12 12 11 10 9 8 7 7 6
10 9 10 11 12 13 15 15 16 17 17 18 17 15 14 14 15 14 15 18 18 14 15 15 16 17 16 16 16 17 19 19 19 19 17 17 18 18 20 19 19 19 18 18 20 20 20 21 18 15 15 17 17 15 16 17 16 17 16 16 17 16 16 18 15 13 13 13 14 14 13 14 16 15 16 16 15 15 14 13 12 11 11 10 9 8 7 7
9 9 10 11 11 13 14 15 16 16 16 16 16 15 14 15 14 14 16 17 18 17 16 15 15 16 17 17 16 17 19 17 18 19 16 18 18 17 19 19 19 19 18 19 19 20 21 19 13 13 16 18 18 16 16 18 17 17 16 16 17 17 17 17 15 13 14 13 12 14 17 18 17 16 17 15 13 14 14 13 12 10 10 10 9 9 8 7
9 9 10 10 10 13 14 14 15 15 15 15 14 15 14 15 14 14 16 18 19 18 16 14 14 16 17 16 16 17 18 17 17 16 15 17 18 18 18 18 18 20 19 18 18 19 20 15 12 16 17 16 18 17 16 17 17 17 17 16 17 17 16 15 14 14 16 16 13 14 19 19 16 16 18 16 14 16 14 14 15 12 9 9 9 8 8 7
9 9 9 9 9 12 14 14 14 13 14 14 13 15 14 15 14 14 17 18 18 19 19 18 17 18 17 16 16 16 19 19 16 13 14 16 17 18 19 17 17 19 17 17 18 19 18 12 12 17 17 16 17 17 16 16 17 18 16 14 14 15 15 15 15 15 17 16 13 14 18 18 16 18 19 18 17 18 16 15 15 13 10 9 8 8 7 6
9 8 9 9 8 11 13 14 13 14 15 14 13 14 14 15 14 15 18 18 19 21 20 17 17 18 17 15 15 17 21 19 15 14 14 15 16 17 19 18 17 17 16 17 19 18 16 13 14 15 16 16 17 17 16 15 17 18 13 12 14 14 15 14 14 14 15 13 12 13 15 15 15 16 17 17 17 17 17 17 15 13 12 10 9 8 7 6
9 8 9 9 8 9 10 12 12 13 14 14 14 14 15 15 14 16 19 19 20 21 21 18 16 17 16 14 14 17 18 16 18 17 13 14 16 17 19 18 18 18 15 17 21 18 15 16 16 16 16 17 17 17 15 15 18 17 11 11 13 13 14 13 13 14 12 12 13 12 13 14 15 14 13 13 16 17 18 20 20 17 15 12 10 8 7 6
9 9 9 9 9 9 9 10 11 12 13 14 14 14 15 14 15 17 18 18 20 21 20 18 17 16 15 15 15 16 15 16 18 17 13 15 16 16 18 17 17 18 15 16 20 18 14 14 14 16 18 18 16 12 11 15 18 13 10 11 12 12 12 11 13 14 12 13 15 14 12 15 17 16 13 12 15 17 19 20 20 19 16 13 10 8 7 6
9 9 9 9 9 9 9 10 11 12 13 14 14 14 14 15 17 18 17 17 21 20 18 18 17 17 16 16 17 16 15 16 16 15 15 16 15 15 15 14 16 18 16 15 17 16 13 10 11 14 16 15 13 9 8 12 13 10 11 14 14 13 11 10 11 13 14 16 16 14 13 15 17 16 14 15 16 19 21 20 18 18 17 14 11 8 6 5
9 9 9 9 9 9 9 10 11 12 13 14 14 14 15 16 17 17 17 18 21 19 18 18 17 16 16 17 18 16 15 17 16 16 17 16 16 16 16 16 17 17 17 17 17 15 13 13 13 13 12 11 13 12 9 9 9 11 15 16 16 15 13 13 12 13 15 17 16 12 11 13 16 16 15 16 16 16 19 21 20 20 19 15 11 8 6 5
10 9 9 9 9 9 9 10 11 11 12 13 13 14 17 17 16 16 17 20 21 19 19 18 16 16 16 16 17 16 15 17 16 16 17 16 16 16 17 18 18 18 19 18 17 17 16 15 13 12 11 11 15 15 12 10 11 13 15 15 16 16 16 16 15 15 16 16 13 10 11 13 15 16 16 17 17 16 17 18 19 19 17 14 11 8 5 4
10 9 9 9 9 9 9 10 10 10 12 12 13 16 17 16 16 16 18 20 21 18 18 17 15 15 16 17 18 16 15 17 16 15 16 15 15 16 16 17 17 19 19 17 16 18 19 15 12 14 14 12 15 17 16 14 13 13 15 16 16 16 16 17 16 15 16 16 12 10 12 14 15 18 17 16 18 18 16 16 16 15 12 10 9 8 5 3
10 9 9 9 9 9 9 10 10 10 11 12 14 16 16 15 16 16 18 20 19 16 16 16 14 14 16 17 17 16 17 18 15 15 16 15 15 16 17 16 15 17 18 16 17 18 19 18 15 16 16 13 14 16 16 15 12 12 14 15 16 17 17 18 17 17 17 16 13 11 13 16 18 18 16 16 17 16 14 14 12 9 7 7 7 7 5 3
10 9 9 9 9 9 9 10 10 10 10 12 15 15 15 16 16 16 18 18 17 17 15 14 15 16 16 16 15 15 18 18 15 15 16 15 15 16 17 17 15 16 17 18 18 16 17 19 16 12 11 12 13 13 12 15 14 12 12 14 16 16 17 18 16 15 14 14 12 12 14 16 16 17 15 15 16 14 12 12 10 8 7 6 7 6 4 3
10 9 9 9 9 9 10 10 10 10 10 13 15 14 15 17 17 17 18 18 18 18 16 15 16 17 17 16 16 15 16 17 15 15 15 14 15 15 16 17 15 15 18 18 18 17 17 18 13 10 10 10 11 11 11 14 16 13 12 14 14 12 15 17 15 12 11 13 14 14 15 15 15 16 14 13 15 14 12 13 12 9 7 8 8 6 4 2
9 9 9 8 9 10 10 10 10 9 10 12 14 14 15 17 17 18 18 17 17 18 18 18 18 18 18 18 17 15 16 16 15 16 16 15 16 16 15 17 16 15 18 19 19 18 19 19 13 11 14 10 6 9 11 11 12 13 13 14 12 11 14 15 14 13 12 13 14 14 15 16 16 16 14 13 15 16 15 14 12 9 7 9 9 6 4 3
9 9 8 9 9 10 10 10 9 9 11 12 13 15 15 16 16 17 17 17 17 18 19 19 18 18 18 19 18 15 15 17 15 16 17 16 17 17 15 17 16 15 17 19 19 18 18 19 15 9 11 11 7 10 13 10 10 12 12 12 13 15 15 13 13 15 14 13 14 15 16 16 16 17 16 16 16 17 17 15 12 10 10 9 8 6 3 2
9 9 9 9 10 10 10 10 9 10 11 11 12 14 14 15 15 16 17 18 18 18 18 18 18 18 17 18 18 16 15 17 15 15 17 17 17 17 16 18 18 14 15 17 18 18 17 19 18 9 7 11 10 12 14 12 10 10 11 11 12 14 14 14 13 13 14 14 14 15 16 16 17 18 19 18 17 17 18 17 13 12 11 10 8 6 4 2
9 9 10 10 10 10 10 9 9 9 11 11 12 13 13 14 15 15 16 17 18 18 18 18 18 18 17 16 17 17 16 16 15 15 17 17 17 17 16 18 18 14 13 15 16 17 16 18 19 12 7 10 12 12 14 14 12 11 12 12 12 12 12 13 12 12 13 14 14 14 15 17 18 18 19 19 18 17 19 18 15 14 13 9 7 6 4 2
9 10 10 10 10 9 9 9 9 10 10 11 12 13 13 14 15 15 15 15 16 17 17 17 17 18 17 16 16 16 16 15 14 15 16 16 17 19 17 17 17 14 13 15 15 16 17 17 18 15 11 12 14 12 11 13 13 13 13 13 13 12 13 13 13 12 12 13 14 13 14 16 17 17 18 18 17 18 18 18 16 15 14 9 6 6 4 3
9 10 9 9 9 9 8 9 10 10 10 11 12 13 13 14 14 14 15 15 15 15 16 16 17 17 17 17 16 16 16 16 14 14 15 16 17 19 18 16 16 15 15 15 15 15 16 16 16 17 15 13 11 9 7 9 12 12 13 13 13 13 13 14 14 13 11 12 12 12 12 15 16 17 18 17 17 17 16 15 14 14 13 9 6 5 4 3
10 10 8 8 8 9 8 9 10 10 10 11 12 12 13 13 13 13 14 14 14 15 15 16 16 16 16 17 16 16 16 16 16 15 15 16 16 17 17 15 14 15 16 16 15 14 15 16 16 16 16 13 10 8 7 8 10 12 12 11 12 13 14 15 14 13 13 12 11 11 11 14 16 16 15 15 14 12 10 11 13 13 11 8 6 5 3 2
11 9 7 7 8 9 9 9 10 10 10 10 11 11 12 12 12 12 13 14 14 14 15 15 16 16 16 16 16 17 16 16 16 16 15 16 16 15 15 15 15 16 17 17 17 16 15 16 15 15 16 15 13 12 10 10 10 12 13 11 11 13 13 13 12 11 12 13 12 12 13 16 16 14 13 13 12 12 11 9 10 11 10 8 6 4 3 2
11 9 8 7 8 8 9 11 12 11 10 10 10 10 11 11 12 12 12 13 14 14 15 15 15 16 16 16 16 16 16 16 17 16 15 16 15 13 13 15 15 16 17 17 17 16 16 16 16 15 15 15 16 16 14 12 10 10 12 11 11 11 12 13 13 11 12 12 12 12 14 16 17 15 14 14 13 13 13 11 9 8 8 7 6 4 3 1
11 10 8 7 7 8 9 10 11 11 11 10 9 10 10 10 11 12 12 12 13 13 14 14 14 15 16 15 15 15 15 15 16 16 15 16 15 13 11 12 14 15 15 15 15 16 16 16 16 16 16 16 17 18 15 13 12 12 12 12 11 11 11 12 13 12 12 12 12 13 14 15 16 16 16 15 15 14 14 14 12 9 7 6 5 4 2 1
11 11 10 8 8 8 8 9 9 10 11 11 10 11 11 10 11 12 12 12 12 13 13 14 14 14 15 15 14 15 15 14 14 15 15 15 15 13 10 9 11 12 12 13 14 15 16 16 16 16 17 17 18 18 15 14 15 14 13 13 12 11 10 10 11 12 13 13 12 13 14 14 14 16 16 16 16 15 15 16 15 12 10 8 5 4 2 1
11 12 11 10 10 9 8 9 9 9 10 11 11 12 12 11 11 11 11 11 12 12 12 13 13 13 14 15 14 14 15 14 14 14 15 15 15 14 12 10 10 9 10 12 12 13 15 16 16 16 16 16 17 16 15 15 15 15 13 13 13 11 10 10 11 12 13 13 13 14 15 14 14 16 16 16 16 16 16 16 15 13 11 8 6 4 3 1
11 11 12 11 11 11 9 10 10 9 9 10 11 11 12 12 12 12 12 11 11 11 12 13 13 13 13 14 14 14 14 15 14 14 15 15 15 14 14 14 11 8 9 11 10 11 13 15 16 16 15 15 15 15 14 13 14 14 13 13 13 12 11 10 11 12 13 13 14 15 14 15 15 16 16 17 17 16 16 15 13 12 10 8 7 5 3 2
11 11 12 11 10 11 10 10 10 9 9 10 10 10 11 12 12 13 12 12 11 11 11 12 13 14 13 13 13 13 14 15 15 16 15 14 14 14 14 15 14 8 8 10 10 10 12 14 15 15 14 14 15 14 14 13 13 13 13 13 13 12 11 11 11 12 12 12 13 13 13 14 15 16 16 16 16 15 14 14 13 12 11 9 7 6 4 2
12 12 12 11 10 10 10 10 10 9 9 9 9 10 11 11 12 12 12 12 13 12 12 12 12 13 13 12 12 13 14 15 15 16 15 14 15 15 14 15 16 11 8 9 10 10 11 12 14 14 13 14 15 14 13 12 11 11 12 13 13 12 12 12 12 12 12 12 12 12 12 12 14 15 15 15 14 14 13 13 13 13 12 9 7 6 5 3
11 11 11 11 10 10 10 10 10 9 9 9 9 10 11 11 12 12 12 12 13 13 13 12 12 12 12 12 12 13 14 15 15 15 15 15 15 16 15 15 15 13 10 9 9 10 10 11 13 13 12 13 13 12 11 11 11 11 13 14 14 13 13 13 13 13 12 12 12 12 12 13 15 15 14 14 14 13 13 13 12 12 11 9 7 7 5 4
Height
829 828 826 826 824 824 823 822 821 819 818 817 816 814 813 812 810 809 808 806 805 804 803 802 801 801 801 801 800 800 799 799 798 798 797 798 798 798 797 796 796 794 794 793 791 791 791 791 791 791 791 793 797 799 799 801 803 802 809 814 815 822 820 813 817 819 812 807 809 813 813 810 813 821 824 824 825 827 828 829 829 829 828 828 826 826 826 827
829 828 827 826 825 824 823 822 821 820 819 817 816 814 813 812 810 809 807 807 805 803 803 802 801 801 801 801 800 800 799 799 798 798 798 798 797 797 797 796 795 794 793 792 792 791 791 792 791 791 792 795 799 799 799 802 803 806 814 815 815 818 813 810 812 813 811 806 807 812 815 814 811 816 822 820 822 828 825 825 830 829 828 828 827 827 826 827
829 828 827 826 825 824 823 822 821 820 819 817 816 814 813 812 810 809 807 806 804 803 802 801 801 800 801 800 800 800 799 798 799 799 798 798 797 797 796 795 795 794 793 793 792 791 791 792 791 792 794 796 801 801 800 802 804 810 813 812 813 812 809 810 811 810 810 809 808 811 816 816 814 816 819 817 821 827 822 818 823 824 824 826 826 826 826 827
829 828 827 827 826 824 823 822 821 820 819 817 816 814 813 811 810 809 807 806 804 803 802 801 800 799 800 800 800 800 798 800 800 798 797 797 797 796 796 796 795 794 794 793 792 792 791 791 791 792 794 798 804 803 804 805 806 811 811 810 812 812 810 807 808 810 812 813 810 811 815 815 816 819 818 817 819 821 817 811 810 810 815 821 823 824 824 825
829 828 828 827 825 824 823 822 821 820 819 817 816 814 813 811 810 808 807 805 803 803 801 801 800 799 799 799 801 799 800 806 802 796 797 797 796 796 796 795 795 794 794 793 793 792 791 792 792 794 797 800 803 803 806 809 808 809 813 814 813 814 811 805 807 810 811 813 812 812 812 811 816 818 816 816 810 806 807 807 806 806 811 815 818 821 823 824
829 828 827 826 825 824 823 822 821 819 818 817 816 814 812 811 810 808 806 805 803 802 801 800 799 799 798 799 800 798 803 807 799 795 797 796 796 796 795 795 795 794 794 793 793 792 792 794 794 797 800 803 807 806 806 810 809 808 813 816 815 815 810 805 807 809 811 811 809 811 810 812 815 812 813 814 803 799 805 807 807 809 812 814 817 820 822 824
829 829 827 826 825 824 823 822 820 819 818 816 815 814 812 810 809 807 806 804 803 801 800 799 798 798 798 799 799 799 803 802 796 796 797 796 796 796 795 795 794 793 794 793 792 792 795 796 797 802 803 805 810 809 807 809 808 807 811 813 814 816 810 806 808 808 810 808 808 813 811 812 811 809 814 811 799 801 807 807 807 809 813 816 818 820 821 822
829 828 827 826 825 823 822 821 820 819 817 816 814 813 811 810 808 807 806 804 802 801 800 799 799 798 798 798 799 802 803 798 795 796 796 796 796 795 795 794 794 794 794 793 793 793 796 798 800 804 804 805 808 808 808 807 807 808 811 812 813 814 808 807 809 808 809 809 813 815 810 810 812 814 814 803 797 804 807 807 808 810 813 816 817 819 821 822
829 828 827 826 825 823 822 820 819 818 816 815 813 812 811 809 808 807 805 804 802 801 800 799 798 798 798 798 800 804 801 795 795 795 795 795 795 795 794 794 794 794 793 793 794 792 795 799 801 802 802 806 808 808 808 806 807 809 811 812 812 810 807 808 808 806 809 811 814 813 809 811 816 818 808 796 800 806 808 809 810 811 813 815 817 818 819 820
829 828 827 826 824 823 821 820 819 817 816 814 813 812 810 809 807 806 804 803 802 800 799 799 798 798 798 797 802 805 798 794 795 794 795 795 795 795 793 794 794 794 794 794 794 793 795 798 799 800 800 806 808 809 810 807 808 811 812 812 811 811 811 811 808 808 811 812 812 810 808 811 818 818 800 794 806 808 807 811 811 812 813 814 816 817 818 819
828 827 826 825 824 823 821 820 818 817 815 813 812 811 809 808 806 805 804 802 801 800 799 798 798 798 797 798 803 803 795 794 795 794 795 794 794 794 793 794 794 794 794 794 796 795 796 796 798 800 800 804 807 809 811 809 810 811 812 810 811 812 813 814 809 809 811 808 810 810 809 812 819 814 796 796 808 808 807 810 813 813 813 815 816 817 818 818
828 827 826 825 823 822 821 819 817 816 814 813 812 810 809 807 805 804 803 801 800 799 799 798 798 798 798 799 801 797 793 794 794 793 794 793 794 794 794 794 794 794 794 795 797 796 797 797 798 799 802 804 806 808 809 811 812 812 812 809 808 808 808 811 810 811 810 806 808 810 806 806 810 802 793 801 809 809 810 810 813 814 814 815 816 817 817 817
827 826 825 824 823 822 820 819 817 816 814 812 811 809 808 806 804 803 801 801 800 799 799 798 798 798 799 800 796 793 793 794 793 794 794 793 794 794 794 794 794 795 794 795 796 797 798 797 798 800 803 804 806 808 808 812 812 811 814 813 810 806 805 809 811 812 810 807 808 810 804 795 793 791 794 806 809 809 811 810 813 813 814 815 815 816 815 815
826 825 824 823 822 821 820 818 817 815 813 812 810 808 807 805 804 802 801 800 799 799 798 798 798 798 800 798 793 792 793 793 793 793 793 793 794 794 794 795 795 795 795 796 796 798 798 798 799 800 803 806 807 808 809 812 813 812 813 816 821 814 805 807 812 811 807 809 808 809 809 794 783 786 796 807 807 806 806 807 812 812 813 814 813 814 813 813
825 824 823 822 821 820 819 818 816 815 813 811 809 807 806 804 802 801 800 799 798 799 797 798 798 798 802 797 791 792 792 792 793 793 793 793 793 794 794 795 795 796 796 797 797 798 799 799 799 801 806 808 807 808 810 812 814 817 813 812 824 821 809 806 811 812 806 808 810 808 809 797 784 786 797 807 808 805 802 804 809 810 811 812 811 813 811 812
823 823 822 821 821 819 819 817 816 814 812 811 809 807 805 803 801 800 799 798 799 798 797 798 797 799 803 797 791 792 792 792 792 793 793 793 793 794 794 795 796 796 797 798 798 799 799 799 804 808 808 807 809 809 812 814 814 822 820 812 818 819 814 809 807 813 809 807 809 807 805 796 785 788 801 809 808 806 803 803 806 806 808 809 809 810 810 811
822 821 820 820 819 819 818 817 815 814 812 810 808 805 804 802 799 798 798 798 798 797 797 798 797 799 799 793 791 792 791 792 792 793 793 793 794 793 794 795 796 797 797 798 798 799 799 802 808 810 809 813 815 811 814 817 812 819 825 818 818 819 819 812 804 809 812 808 807 808 807 796 784 785 798 806 807 807 803 800 801 803 805 806 808 808 808 809
820 819 819 818 817 817 817 816 815 813 811 809 807 805 802 800 798 798 798 798 798 798 799 798 798 803 799 791 792 792 791 792 792 793 793 793 794 794 794 795 797 797 798 799 799 800 801 805 809 808 809 814 814 811 814 816 811 813 819 817 818 821 820 817 809 808 810 808 807 809 808 798 785 782 788 797 805 803 797 797 797 799 803 804 805 806 805 805
819 818 817 817 816 816 816 815 814 813 811 809 807 804 800 799 798 797 797 798 799 800 800 799 799 802 799 792 793 792 791 792 792 792 792 793 794 794 795 795 797 797 800 802 800 803 805 806 809 808 806 806 805 807 807 807 809 811 816 817 818 818 817 815 811 809 810 809 806 807 806 796 786 780 778 788 800 799 794 796 797 797 799 801 801 801 800 800
818 817 816 815 815 814 814 814 813 812 811 808 806 803 801 803 803 801 799 798 799 798 798 798 797 796 794 793 793 792 792 792 792 792 792 793 793 794 795 796 798 798 802 803 802 808 811 808 808 804 799 798 801 806 807 809 814 814 817 820 820 821 816 809 808 811 814 811 803 801 804 799 789 780 774 780 792 794 794 796 794 794 794 794 796 794 794 795
817 816 815 814 813 813 813 813 812 812 811 809 807 805 807 810 810 808 805 798 795 796 795 795 796 794 792 793 793 792 793 792 791 792 792 793 794 795 796 797 800 801 806 808 807 810 813 809 803 797 797 801 806 812 812 813 816 816 817 818 820 823 816 807 810 815 816 814 805 800 803 798 789 781 772 775 782 781 785 789 785 786 788 788 789 788 789 792
817 815 814 813 812 812 812 811 811 811 810 809 808 808 810 811 811 812 811 804 796 794 795 794 795 794 792 793 792 792 793 793 791 791 792 794 794 795 797 798 801 802 807 811 808 809 812 805 796 798 807 810 814 817 812 811 816 817 820 822 819 819 815 808 813 819 819 816 806 802 804 793 783 778 768 766 770 769 773 776 772 775 780 781 781 783 787 790
816 814 813 812 811 811 810 810 810 809 810 809 808 809 810 810 811 811 812 810 801 793 793 793 792 792 791 791 791 792 793 794 792 790 791 793 794 797 796 799 803 803 807 807 805 809 808 799 799 808 810 806 810 817 813 812 816 817 819 821 815 816 815 808 811 818 817 816 812 808 802 784 773 771 763 760 764 765 767 768 767 770 770 771 774 777 781 783
815 814 813 811 810 809 809 809 808 809 809 808 809 809 810 810 811 811 810 811 804 793 791 791 791 790 789 788 788 790 792 793 792 789 790 791 794 798 796 798 803 804 805 804 805 807 800 800 812 814 808 803 806 814 814 812 814 815 817 817 812 812 813 810 815 819 814 815 819 808 783 760 761 766 757 761 769 764 764 764 763 767 767 767 770 771 773 775
814 814 812 811 810 808 809 809 807 808 807 808 809 808 810 810 810 811 810 811 807 796 790 789 790 788 786 787 787 789 792 791 789 789 789 790 792 796 797 800 801 800 804 807 810 806 798 807 815 807 806 807 805 809 812 811 813 814 811 812 810 808 811 815 818 817 809 808 816 811 783 756 758 764 755 759 765 759 761 761 754 758 766 768 767 766 768 771
814 813 812 811 809 808 809 807 806 808 806 807 808 807 810 809 810 811 809 816 813 794 786 787 787 785 784 787 789 789 790 789 788 789 789 790 790 791 795 800 801 801 804 807 808 804 802 813 814 804 805 809 807 809 812 812 815 813 810 814 814 813 815 816 817 816 809 809 816 817 803 777 757 753 750 753 757 753 754 755 749 753 760 762 762 761 765 767
813 813 812 810 809 808 808 806 806 806 805 807 806 808 809 808 811 809 809 823 813 784 781 788 786 783 783 787 789 787 787 787 788 789 789 789 790 790 793 798 801 802 805 807 804 800 802 809 811 806 806 809 807 805 808 812 810 809 816 819 814 814 816 817 819 819 816 820 822 817 814 799 769 756 756 754 755 754 750 747 746 748 752 754 757 757 759 762
812 812 811 810 809 809 807 806 805 804 805 805 805 807 807 808 810 807 815 827 804 774 777 785 784 782 784 788 789 787 788 787 787 788 790 790 789 790 792 795 796 798 803 804 798 798 801 802 803 804 805 806 803 801 807 809 803 808 822 822 817 817 819 821 821 820 825 826 818 814 820 808 771 758 768 765 759 756 745 736 733 736 742 745 750 754 755 758
811 811 811 810 809 809 808 806 805 804 804 805 806 807 806 809 808 808 826 827 791 770 777 780 781 784 786 789 790 789 791 789 787 788 790 790 789 790 793 796 796 797 803 803 794 795 802 804 804 802 799 798 801 812 816 806 801 814 826 822 821 824 824 827 822 818 826 819 801 802 815 803 763 745 764 771 761 751 739 733 731 731 736 741 746 750 754 758
810 810 810 810 809 809 807 806 805 804 804 804 805 806 806 808 809 819 834 817 782 776 782 780 782 785 787 789 789 791 791 789 790 790 790 791 790 791 795 798 798 797 801 804 798 798 806 811 811 803 798 800 807 820 824 816 813 820 820 812 813 820 825 832 829 822 819 802 787 794 804 799 770 746 754 756 746 738 729 730 734 730 730 737 744 749 753 756
808 809 809 809 809 808 807 807 805 803 804 804 804 806 806 810 818 827 822 796 779 781 780 781 786 786 787 787 786 790 792 789 790 790 790 792 792 793 795 795 797 800 802 800 797 800 804 806 805 802 804 807 806 813 822 824 823 817 810 807 808 812 817 822 823 823 814 790 786 802 807 803 778 749 745 743 735 735 728 724 726 723 724 732 742 748 751 754
808 808 807 807 808 807 807 807 805 805 805 803 805 804 806 816 821 817 804 784 778 779 775 781 788 787 788 789 785 790 792 788 789 790 790 794 794 793 792 789 791 796 797 797 797 796 794 795 801 801 805 806 797 802 816 820 818 813 809 813 815 816 816 812 810 814 806 790 796 811 809 797 767 738 736 736 731 733 729 725 724 721 725 733 741 747 750 753
806 806 806 806 806 806 807 806 806 806 804 804 805 803 811 820 810 797 794 782 774 777 777 782 789 789 789 787 785 789 791 786 788 790 790 794 796 793 790 789 790 787 787 798 801 793 786 792 802 797 795 799 793 793 801 805 812 813 808 810 813 818 818 810 809 810 797 788 800 814 805 780 747 726 726 727 722 723 724 726 727 728 733 739 742 746 748 752
804 804 804 804 805 805 805 806 806 805 805 805 803 806 816 816 797 787 787 777 773 781 783 784 789 791 789 785 784 786 785 783 787 789 789 795 797 792 787 788 792 787 787 798 799 793 788 784 788 787 785 791 791 789 790 795 809 813 807 807 805 805 804 798 796 794 785 783 796 809 793 757 730 719 719 720 719 723 726 728 733 737 742 745 744 745 747 750
803 802 802 802 803 803 803 806 805 805 807 804 803 810 808 795 786 785 781 775 776 780 783 787 788 787 788 787 787 785 779 778 786 790 790 791 790 785 779 779 787 787 787 792 792 796 797 782 781 793 795 793 792 794 797 795 801 812 813 809 802 795 792 792 797 799 801 800 795 793 772 739 726 721 718 723 721 723 730 730 733 738 741 744 742 742 746 748
802 801 800 800 799 800 802 804 804 805 806 803 806 806 787 771 773 776 769 767 770 772 780 787 784 784 786 783 784 784 779 780 787 788 788 790 785 781 776 770 776 780 776 780 784 788 790 781 788 801 799 799 800 798 801 793 790 808 813 801 801 802 792 790 802 813 820 807 781 771 755 732 726 721 718 727 723 720 728 726 726 734 739 740 737 738 744 746
800 798 797 796 796 798 800 801 802 804 805 805 802 787 769 762 763 762 760 763 765 766 772 776 775 776 775 773 776 780 780 781 786 784 783 786 776 770 772 766 767 771 762 764 771 773 775 774 787 797 789 798 812 804 801 801 797 802 803 794 799 806 799 797 804 807 814 808 778 761 751 732 725 721 719 725 719 713 719 718 722 733 738 735 731 735 742 742
796 796 793 790 792 795 797 800 801 801 803 805 793 773 763 761 757 755 757 759 761 762 766 768 766 765 766 766 768 776 778 776 782 782 776 777 765 754 762 761 759 764 757 757 764 767 772 771 783 803 798 798 810 802 794 802 804 798 797 797 796 794 795 803 808 799 800 805 780 753 744 727 714 713 710 711 711 707 708 711 720 728 729 728 727 732 738 740
795 795 787 781 786 792 794 798 799 800 803 800 786 771 763 758 755 755 753 752 755 759 761 760 757 758 762 762 761 769 773 769 775 777 767 766 761 751 753 750 750 761 759 758 762 763 770 769 774 801 809 798 800 796 786 792 804 804 800 801 797 792 792 796 802 798 790 793 779 757 743 712 691 697 696 694 702 702 700 704 712 717 718 720 723 727 733 736
791 791 780 772 781 788 792 797 798 799 796 785 772 766 762 759 756 754 750 749 750 752 754 754 754 757 759 761 760 760 764 765 769 771 761 758 755 748 748 744 746 760 762 761 762 761 769 769 766 789 810 800 785 779 771 770 786 796 794 797 797 797 799 796 798 798 788 786 782 775 754 702 674 687 688 686 694 695 693 696 701 707 709 715 721 721 727 732
787 786 774 769 776 783 791 797 795 792 787 775 765 762 761 758 754 752 750 751 750 747 748 751 752 752 752 757 760 757 760 764 766 765 758 753 749 741 739 738 741 755 763 765 764 760 764 767 763 774 790 782 765 767 773 767 768 775 775 778 780 785 793 792 791 792 789 782 772 775 762 705 672 683 684 683 691 689 688 692 695 700 701 710 718 717 721 726
783 778 768 768 774 778 787 790 785 784 781 770 763 759 757 754 753 752 750 752 753 750 750 749 747 748 747 748 752 754 756 758 760 761 753 746 743 734 730 734 739 744 750 757 758 756 759 764 764 760 761 765 769 779 788 780 772 773 770 768 769 773 778 775 772 775 782 781 771 779 774 711 668 680 683 682 688 686 689 694 693 697 700 706 714 715 719 722
773 770 768 770 770 772 783 786 781 778 771 761 759 758 755 754 754 753 750 750 752 751 750 746 740 743 744 743 747 750 750 750 750 750 748 743 738 730 729 735 740 741 743 748 754 757 759 762 764 758 752 762 776 784 787 784 778 772 768 769 769 764 759 757 760 764 768 769 770 786 777 707 663 679 686 685 693 696 700 701 695 696 702 707 712 713 717 719
762 765 769 771 770 770 772 769 766 767 764 760 760 758 755 755 752 751 749 748 747 746 744 739 737 739 741 741 742 742 744 744 740 739 742 738 732 729 730 733 737 737 735 736 740 747 755 757 762 766 761 759 764 769 774 779 778 767 759 765 766 758 757 761 766 771 763 752 758 773 750 687 662 685 691 688 695 695 697 702 700 697 700 704 709 712 715 718
758 763 767 769 769 767 760 748 747 754 758 760 759 756 757 755 747 744 745 744 742 742 741 739 740 739 738 740 741 739 740 738 733 735 736 731 729 731 732 732 731 728 726 727 729 735 744 748 752 759 760 755 746 741 744 756 768 766 758 760 762 759 760 757 757 765 757 744 752 750 712 672 667 678 681 685 690 688 688 696 700 700 700 702 706 709 712 714
751 755 762 767 766 763 755 746 747 748 748 754 759 755 755 753 743 738 743 744 741 741 742 740 740 738 737 740 741 737 736 734 733 732 730 726 725 729 735 734 728 727 728 729 730 733 737 739 738 736 735 732 723 717 726 739 750 753 748 748 753 755 757 754 750 748 741 740 743 721 694 689 682 666 668 680 683 682 681 682 687 694 697 700 703 704 707 710
741 739 745 754 757 758 755 750 750 747 742 747 751 744 742 745 744 740 739 738 736 739 742 739 737 738 735 735 736 732 729 734 736 731 724 722 723 729 739 740 735 734 735 733 733 732 733 733 728 722 719 716 710 711 723 730 730 734 737 737 741 747 754 757 748 730 725 735 727 697 693 706 685 657 664 675 674 675 674 670 674 681 686 692 697 701 705 707
731 726 727 731 734 741 743 738 738 743 742 742 739 733 732 737 740 737 734 734 734 736 739 736 733 731 726 725 730 730 729 734 734 726 718 718 723 728 733 737 741 742 740 739 738 734 730 725 717 716 719 716 711 713 722 726 722 724 729 728 728 736 744 749 739 719 714 720 705 684 692 696 669 654 665 668 666 670 667 664 670 675 679 686 691 696 700 704
725 723 723 724 721 721 724 722 727 737 739 737 736 733 730 728 725 723 727 733 734 732 733 729 722 719 721 723 727 730 731 728 722 716 714 717 721 725 727 729 738 747 745 740 741 739 731 720 713 715 719 716 714 714 721 729 727 723 724 720 719 727 734 733 722 706 704 708 695 684 687 676 652 651 662 659 659 666 665 663 668 672 675 681 685 689 694 698
717 715 716 720 718 716 718 721 727 733 732 734 735 730 725 722 716 714 719 723 725 728 728 721 712 712 719 725 729 728 720 713 708 705 708 716 719 723 725 719 724 744 749 740 739 740 732 719 713 716 719 713 709 711 719 726 726 724 721 710 708 721 729 722 710 701 705 707 695 690 691 670 642 646 660 659 659 665 665 662 663 664 669 675 679 683 688 692
706 704 706 712 713 712 714 717 722 727 728 729 728 721 718 716 709 708 713 711 710 714 716 714 711 713 718 723 725 717 705 701 702 700 703 711 713 713 715 711 712 731 744 741 736 735 733 726 718 721 723 710 702 711 719 722 730 733 718 696 696 710 711 702 698 700 702 700 695 699 695 665 640 646 660 659 659 664 661 657 657 657 661 669 673 676 680 684
705 703 704 708 706 704 708 711 714 718 716 714 712 708 707 705 701 707 713 708 700 700 703 707 710 712 716 717 709 698 692 693 697 698 701 706 705 704 707 708 707 714 728 737 733 729 730 724 718 723 722 709 709 719 720 726 735 724 693 674 680 693 691 686 689 689 685 686 692 690 671 647 641 653 658 654 654 657 653 652 653 654 657 664 667 668 672 675
Wind_Speed
11 12 12 13 14 15 16 17 18 19 20 21 22 22 22 22 22 21 20 19 16 14 8 3 5 6 5 6 3 3 4 4 4 7 6 4 5 6 7 7 7 9 9 8 8 3 2 5 7 6 5 4 4 1 2 3 3 4 3 3 1 3 4 5 7 7 4 3 5 6 5 6 4 3 3 1 5 3 1 2 2 4 3 0 3 9 18 22
11 12 12 13 14 15 16 17 18 19 20 21 22 22 23 23 22 22 21 19 16 14 11 5 5 7 7 8 4 3 5 3 3 8 7 4 5 6 7 7 7 8 8 8 8 7 5 4 6 6 4 3 2 1 2 2 3 4 4 3 1 5 4 5 7 6 2 2 5 4 3 4 5 5 5 3 1 0 3 2 4 3 2 1 5 10 14 18
12 12 13 13 14 15 16 17 18 19 20 21 22 23 23 23 23 22 22 20 15 13 12 7 4 7 8 8 6 4 6 3 1 3 3 4 4 5 6 7 6 7 8 7 7 7 4 1 1 3 4 3 2 2 4 3 2 2 4 3 4 6 4 3 6 6 3 2 4 3 1 2 4 5 4 4 4 3 6 6 3 5 7 6 7 9 12 15
11 12 13 14 15 15 16 18 18 19 20 21 22 23 24 24 24 23 23 22 16 11 12 9 4 6 9 9 6 5 7 3 1 2 1 2 3 4 5 6 6 5 6 6 6 6 5 4 3 3 4 3 4 3 3 3 1 1 4 3 5 3 2 4 6 5 3 2 3 2 2 2 2 3 3 6 5 5 9 10 11 11 13 12 9 10 13 14
11 12 13 14 14 15 16 17 18 19 20 21 22 23 24 25 25 25 24 23 17 10 11 10 6 4 7 9 6 5 6 3 2 2 1 1 2 4 4 6 7 4 4 6 5 5 5 6 6 6 5 3 5 4 2 2 1 2 1 3 5 3 1 5 4 4 3 4 4 3 3 3 3 2 4 9 7 7 6 8 11 9 12 15 12 12 12 11
12 13 13 14 15 15 16 17 18 19 20 20 21 23 24 25 25 26 25 24 18 11 10 10 7 4 5 8 7 3 3 0 2 2 1 0 2 4 4 6 8 5 4 5 6 6 6 7 6 5 3 3 3 3 1 4 2 1 1 2 4 4 2 3 1 3 4 6 4 4 4 3 4 4 4 10 12 7 2 6 7 6 9 13 12 11 10 9
12 13 13 14 15 16 16 17 18 19 20 20 21 22 23 24 25 26 26 25 18 11 10 8 6 4 2 6 5 2 2 3 2 2 2 1 2 4 4 6 7 5 3 6 8 6 6 7 6 4 4 3 0 1 1 4 3 4 1 2 2 4 4 3 0 1 4 6 5 3 3 5 7 5 1 9 14 4 3 3 5 9 13 13 10 9 9 10
13 13 14 14 14 15 16 17 18 19 20 20 21 22 23 24 25 26 26 25 18 12 10 6 4 2 2 4 3 2 2 4 2 2 3 2 3 4 4 5 6 4 4 9 8 3 4 6 3 3 3 2 3 1 1 3 4 4 2 3 1 3 6 4 2 2 4 5 2 5 4 5 7 3 0 11 12 1 2 3 7 10 12 10 9 9 8 9
14 14 14 14 15 15 16 18 18 19 20 21 21 21 23 24 25 26 26 25 17 12 11 6 3 2 4 3 4 2 4 2 1 2 2 3 4 4 3 4 6 5 7 9 7 4 3 2 2 3 2 2 3 2 2 2 2 1 4 3 2 3 5 3 3 4 4 3 3 6 5 5 2 1 5 10 7 3 4 6 7 9 10 9 8 8 8 8
14 14 15 15 15 16 17 18 19 20 20 21 22 22 23 24 26 27 27 25 16 12 11 6 3 4 4 2 5 0 4 1 0 2 2 3 3 3 3 5 6 6 7 7 7 7 4 4 3 3 5 3 3 2 0 1 1 2 2 3 4 3 5 2 4 5 2 2 4 6 6 4 2 2 5 5 3 6 7 6 6 9 10 9 7 7 9 9
14 14 15 15 16 16 17 18 19 20 21 22 22 23 23 24 26 27 28 23 13 11 10 5 3 5 4 3 5 4 4 1 1 1 1 2 1 2 4 5 5 6 6 7 7 6 5 7 7 4 1 1 2 1 1 1 3 2 0 3 5 4 4 2 3 4 1 2 6 6 5 3 2 2 6 3 5 6 8 8 7 8 8 8 7 7 8 10
15 15 15 16 16 16 17 18 19 20 21 22 23 23 23 24 26 28 29 19 9 10 8 5 3 5 3 3 3 6 4 3 2 1 1 1 2 3 6 5 5 6 4 6 5 4 6 6 7 5 1 2 1 2 1 1 3 1 2 2 7 7 3 2 2 3 2 2 5 6 4 4 5 8 6 2 6 5 7 8 7 8 7 6 7 6 6 10
17 16 16 16 17 17 17 18 19 20 22 22 23 24 24 25 26 28 27 15 7 9 8 5 4 4 2 1 4 5 5 4 2 1 1 2 3 5 6 5 5 7 5 7 7 6 6 4 6 5 2 4 1 1 2 3 2 0 3 2 4 7 3 2 1 0 2 2 3 3 4 6 9 12 5 5 8 7 6 8 7 7 6 6 7 6 6 9
18 18 17 17 17 18 18 18 20 21 22 23 24 24 24 25 27 28 24 12 8 9 8 5 4 3 1 3 4 3 6 5 3 2 1 2 3 4 6 5 5 7 8 9 9 7 6 4 7 5 2 3 1 0 3 6 3 1 1 2 2 3 4 5 0 3 4 1 1 3 3 8 9 9 6 7 9 10 10 10 8 8 7 7 7 7 7 8
19 19 18 18 18 18 18 19 20 21 22 23 24 25 24 25 27 28 19 9 7 8 6 3 4 3 1 4 3 3 6 5 4 3 0 2 2 3 4 5 6 8 9 8 9 7 5 5 6 5 1 2 3 3 3 5 4 3 2 3 3 0 5 8 2 5 4 1 2 4 3 9 11 7 4 7 8 10 11 10 9 9 9 8 7 8 7 7
20 20 20 19 19 18 18 19 19 21 22 23 23 24 23 24 28 24 13 7 7 7 2 1 4 4 1 4 2 2 4 4 3 3 2 1 2 3 4 6 6 7 7 7 8 6 5 5 4 2 1 1 4 4 3 4 4 4 1 3 4 2 4 7 2 3 3 0 0 2 3 7 8 4 2 6 8 9 9 9 10 11 10 10 8 7 7 6
20 21 20 20 20 18 18 18 19 20 22 22 23 24 23 23 23 16 8 5 5 3 1 2 3 3 1 3 2 3 3 3 3 3 2 1 3 3 4 5 5 6 6 5 4 3 4 4 1 1 2 3 3 4 3 4 4 4 2 2 4 3 3 5 4 3 1 2 3 4 5 10 13 6 3 7 9 9 10 11 12 11 10 9 8 8 8 8
21 21 21 20 20 18 18 17 18 20 21 22 21 23 21 18 15 8 3 2 2 2 2 1 3 2 3 2 2 2 0 2 3 2 2 2 2 3 4 4 4 4 5 4 2 2 3 3 2 1 3 4 3 6 2 4 3 4 3 3 4 3 4 5 5 3 1 1 5 4 6 14 19 13 7 8 9 11 13 12 11 10 10 9 9 9 10 10
21 21 21 21 20 18 17 16 17 18 21 21 20 19 14 10 8 3 1 1 0 1 1 2 1 2 3 3 2 0 2 1 2 2 2 3 2 3 5 5 5 4 3 1 2 2 1 2 3 0 2 3 3 6 7 8 7 6 5 4 4 5 6 6 6 5 1 2 7 7 9 13 18 17 11 7 9 12 12 9 8 8 9 10 10 10 11 12
20 21 21 21 20 18 16 15 16 16 18 20 20 16 7 4 5 4 4 2 4 3 2 5 4 4 4 3 2 1 1 1 2 2 3 4 4 4 3 4 5 4 2 3 2 2 3 0 3 5 7 8 8 7 6 5 6 4 4 4 5 6 7 6 4 5 1 1 9 9 9 13 16 19 16 6 8 11 11 9 10 10 10 11 12 13 14 14
19 21 21 20 19 17 14 14 14 14 15 15 15 9 1 1 1 3 5 5 7 4 5 7 4 6 7 2 1 1 1 1 2 1 4 4 4 3 2 2 3 0 1 2 1 2 4 2 7 9 9 7 5 6 6 6 5 3 4 4 5 5 8 8 3 4 2 2 6 7 6 13 16 17 18 8 8 11 11 11 14 13 12 11 13 15 14 10
19 21 21 20 19 16 13 12 12 13 12 10 8 3 4 3 3 2 1 5 9 3 4 4 2 5 6 3 3 2 2 2 5 3 6 4 2 3 3 2 4 4 2 2 1 4 3 6 10 8 6 5 5 5 7 5 4 3 2 2 4 4 5 7 4 4 2 2 5 8 8 14 17 17 20 16 11 11 10 13 15 13 13 13 13 14 12 10
17 20 21 20 20 16 10 9 10 11 9 6 4 4 5 3 5 3 2 2 8 4 2 2 3 4 3 3 5 5 1 4 4 5 7 7 1 3 3 4 4 2 0 3 5 2 2 7 8 4 7 8 5 4 7 5 2 3 3 2 5 4 2 5 4 5 3 2 4 8 11 14 14 14 17 14 8 8 8 12 13 10 12 14 12 12 12 14
16 19 21 19 18 14 8 8 8 6 5 3 3 3 4 4 5 3 1 0 5 5 3 4 3 4 3 2 6 8 2 4 3 3 6 9 4 2 3 4 4 1 4 6 7 6 7 6 2 5 5 6 5 3 5 4 2 3 5 6 6 5 5 6 3 5 4 2 2 6 11 11 7 8 11 5 3 5 6 8 11 9 10 10 8 10 13 15
15 19 20 16 14 11 6 7 4 1 2 2 3 3 5 5 4 3 2 2 3 6 4 3 2 4 5 4 6 7 2 2 4 3 5 7 5 3 1 2 3 4 5 5 5 5 8 4 5 5 2 4 6 3 5 7 2 4 5 9 9 8 7 4 5 6 5 4 3 5 7 9 2 3 8 3 3 6 4 6 12 10 8 8 9 10 11 12
15 17 18 14 12 10 5 3 2 1 2 2 4 3 4 4 4 3 2 4 3 6 2 2 2 4 6 3 2 4 2 3 3 1 3 4 3 3 2 1 0 3 5 5 3 4 3 2 3 5 4 4 4 4 6 7 4 3 4 6 6 4 1 2 4 4 2 3 4 4 1 9 4 3 8 6 5 9 7 8 13 10 7 9 11 10 10 11
14 15 17 14 11 9 3 2 1 0 0 2 4 2 2 4 4 3 2 4 4 4 2 1 0 4 5 2 1 4 3 4 1 2 2 2 1 2 2 3 1 2 4 4 1 3 2 3 4 5 5 4 4 5 6 8 7 3 4 4 5 5 3 2 3 1 4 2 4 1 4 8 9 5 6 4 5 11 12 12 13 10 9 11 11 10 10 12
13 13 14 11 9 9 4 3 2 2 3 3 3 2 2 5 4 1 3 2 5 1 2 1 1 2 1 1 3 4 2 2 2 1 1 2 0 3 1 6 6 4 3 5 5 4 3 4 4 5 4 3 6 5 7 10 5 5 5 5 6 6 4 4 4 2 2 3 5 5 5 4 10 5 2 2 4 9 12 14 13 10 10 11 11 10 11 11
13 12 12 8 9 10 6 4 3 3 4 4 3 2 4 6 3 4 3 3 4 1 1 0 2 1 2 2 1 2 1 1 1 3 3 2 0 4 2 6 6 5 1 3 6 4 1 4 7 7 5 5 4 2 5 7 3 3 5 5 5 5 4 4 3 1 2 3 7 7 7 4 8 4 3 3 3 8 10 11 10 10 9 8 8 9 9 8
13 11 11 9 9 10 6 6 6 5 4 3 3 4 6 4 2 3 3 5 2 0 1 1 2 1 4 4 2 2 0 2 1 2 3 1 3 6 1 3 6 4 1 3 4 4 2 1 3 4 4 5 4 3 1 4 3 4 5 4 5 4 4 4 1 2 2 6 9 7 12 7 6 3 5 4 5 7 8 7 7 9 9 6 6 7 8 8
11 11 12 10 9 8 5 5 4 5 5 5 6 6 5 2 4 4 7 6 2 2 1 1 1 2 5 5 2 1 1 2 1 2 1 1 2 4 1 2 3 3 3 4 5 4 3 0 2 2 3 5 6 5 3 3 3 4 4 4 4 4 4 4 4 4 0 7 6 4 8 8 7 6 4 5 7 6 7 6 7 10 10 5 5 5 7 8
11 11 11 10 10 9 6 4 1 1 5 8 8 5 5 1 2 4 5 3 2 3 3 2 1 2 4 2 1 3 3 2 2 3 4 3 2 3 3 5 5 1 3 5 4 5 3 4 3 1 2 4 5 4 3 4 3 4 4 4 2 4 4 3 3 1 3 7 3 1 4 5 11 11 8 10 10 8 9 8 9 11 10 4 4 6 6 7
15 13 10 11 11 11 10 8 5 3 5 10 6 4 6 3 6 5 4 3 3 2 2 2 1 2 4 2 2 3 2 2 3 3 2 3 3 5 6 5 6 3 3 4 1 3 4 4 0 3 3 3 7 5 2 2 2 5 5 4 3 1 1 3 4 2 5 7 2 3 3 4 9 8 11 16 15 13 11 9 9 9 7 5 5 6 6 7
18 16 13 12 14 14 12 10 8 5 6 8 4 5 4 6 5 5 8 7 3 1 2 3 3 2 3 2 4 4 3 4 4 5 2 3 2 5 6 6 6 3 2 2 1 2 3 7 3 6 2 4 8 5 4 5 4 4 5 5 5 5 4 4 4 4 7 6 3 3 2 4 5 4 6 11 11 9 6 7 7 5 5 5 5 6 7 7
17 17 15 13 16 16 13 12 10 6 6 5 4 4 7 8 3 4 7 6 2 0 2 2 4 3 2 3 4 3 4 4 2 5 4 4 4 5 5 7 8 5 4 3 2 2 3 8 5 1 1 4 6 2 4 6 2 2 3 4 3 4 5 3 3 4 2 5 4 3 4 6 3 4 6 4 6 7 5 6 7 5 3 3 5 6 6 7
18 18 16 15 18 18 15 15 12 8 7 3 4 6 10 7 4 5 5 5 5 5 4 1 3 3 4 3 3 4 2 2 2 3 4 4 4 5 5 5 9 11 9 6 3 2 2 6 3 2 2 1 3 2 2 2 3 2 3 4 4 4 5 2 3 1 4 3 6 2 6 9 3 5 6 2 6 8 6 8 9 6 2 2 6 7 6 7
20 16 13 16 20 19 17 16 13 11 6 3 6 10 7 5 6 7 5 5 5 6 7 3 3 5 6 3 4 5 3 1 2 3 3 3 4 6 7 4 6 15 16 8 3 4 3 4 3 3 1 1 1 2 2 1 3 5 3 5 3 2 4 3 1 3 3 3 6 4 9 13 8 6 2 3 6 9 9 10 8 4 3 6 9 8 7 8
19 11 9 17 22 20 19 19 16 11 4 3 10 12 4 4 7 6 6 5 4 5 6 6 6 6 7 6 4 6 6 4 4 5 4 4 5 5 8 5 6 13 17 10 4 3 3 3 4 2 2 1 2 2 1 2 2 5 3 3 3 3 2 2 2 2 2 3 7 9 12 13 9 6 4 5 9 9 10 10 7 6 8 10 10 8 8 8
17 7 7 16 24 23 23 22 16 8 3 6 12 11 4 4 5 4 7 6 4 5 7 8 7 5 5 6 5 5 7 7 7 6 4 5 5 4 8 7 6 8 11 11 7 3 3 3 4 0 2 1 2 2 5 2 1 2 0 1 1 2 4 3 3 3 3 3 6 11 13 12 7 7 7 10 10 10 10 9 8 10 11 11 10 8 8 9
14 4 3 11 21 26 27 20 10 6 5 8 10 7 2 1 4 6 9 9 4 4 6 7 6 5 5 6 5 5 6 6 7 6 4 5 5 5 7 7 5 4 3 5 6 2 3 3 5 1 2 1 4 6 9 10 7 4 3 3 2 1 2 1 2 3 4 4 4 4 11 15 6 7 8 10 9 10 10 9 9 10 12 11 10 9 9 9
9 5 3 14 25 29 26 13 5 6 6 7 8 5 1 2 4 7 9 8 5 2 3 5 7 7 6 6 4 4 5 4 6 6 5 6 5 6 8 10 9 8 4 3 3 4 3 3 5 3 2 5 6 3 3 7 8 7 8 8 8 6 4 1 5 3 3 4 5 4 8 18 6 7 7 8 8 10 10 10 9 9 11 11 10 10 10 10
5 5 5 21 35 34 21 7 5 5 5 7 7 4 3 3 3 5 6 6 4 3 0 3 8 9 7 6 4 5 6 4 6 7 5 7 10 9 8 9 11 12 9 4 3 3 3 3 4 6 6 6 4 1 1 3 2 3 5 5 7 7 7 7 8 5 3 3 2 4 4 16 7 7 6 7 7 8 8 8 8 8 10 10 9 9 9 9
5 4 6 26 43 35 14 5 6 5 6 7 7 5 3 2 2 3 6 7 6 4 4 6 8 9 7 5 5 6 8 6 7 9 4 5 10 11 8 11 12 10 7 3 1 1 2 2 3 6 5 3 3 3 2 2 3 2 6 5 7 8 10 9 6 3 3 4 3 5 5 17 9 4 4 4 3 4 4 6 8 7 7 8 8 8 8 9
6 3 3 22 42 32 12 8 9 8 8 8 9 9 5 2 5 7 8 9 8 6 8 10 7 6 7 5 6 8 9 7 8 9 7 7 8 7 9 14 13 10 7 5 5 5 3 3 3 3 5 5 4 3 2 1 2 4 5 4 7 11 9 3 0 2 4 7 8 5 11 20 10 4 5 1 4 5 6 6 7 7 7 7 7 7 8 8
4 3 2 13 27 21 9 8 7 8 12 13 13 13 9 5 7 10 11 11 9 5 5 6 4 4 6 5 5 9 9 9 9 6 7 9 5 1 7 15 16 13 8 4 7 8 6 4 5 6 9 10 10 7 4 3 3 3 3 5 10 14 12 6 3 5 9 9 10 9 18 20 14 8 5 2 5 8 8 8 7 8 8 7 6 7 8 9
4 3 2 5 9 9 8 7 4 5 9 12 10 10 13 12 7 6 9 10 9 7 4 4 3 5 7 8 8 11 12 12 10 5 6 7 3 2 3 10 14 10 3 4 8 8 4 4 9 13 15 14 15 13 4 7 5 6 9 12 14 15 15 12 8 9 11 9 8 18 23 17 23 27 17 9 10 11 11 11 9 8 9 8 8 9 8 8
5 5 6 6 3 6 9 8 8 8 6 7 6 6 12 15 8 3 8 10 9 9 7 7 6 7 9 12 12 13 13 11 10 12 14 10 4 2 1 3 6 4 2 3 5 5 3 6 15 20 21 19 19 17 6 9 8 12 14 16 17 16 16 15 15 18 15 9 12 23 21 16 27 33 22 16 17 14 15 17 12 8 9 8 8 8 8 8
6 4 7 9 6 7 11 12 14 13 10 7 7 6 9 12 12 9 8 5 5 9 9 8 12 17 18 16 13 11 10 9 11 16 18 14 7 2 1 1 2 2 2 1 2 3 4 9 16 18 19 19 20 18 9 8 8 9 12 17 19 19 19 19 22 27 23 15 17 23 21 21 30 28 20 19 18 14 17 17 9 7 8 7 7 8 9 10
6 1 3 8 7 9 13 15 16 16 17 14 9 10 12 16 19 14 6 3 4 9 12 13 18 22 23 17 11 9 9 11 14 16 15 12 9 5 2 3 2 0 2 3 2 2 4 8 14 14 15 17 19 18 10 7 9 9 12 18 19 17 20 23 26 31 27 21 23 27 27 29 30 22 17 20 17 12 14 15 8 7 8 7 9 10 10 11
8 2 5 7 7 9 10 11 11 12 16 15 11 13 16 19 23 16 6 8 9 7 12 20 23 18 16 15 12 14 18 20 20 18 11 8 7 5 4 6 3 1 2 5 2 2 5 7 9 8 9 15 19 15 10 10 11 12 16 24 22 15 16 23 26 25 21 20 25 28 27 28 27 20 16 18 16 12 15 18 16 13 10 9 10 10 10 12
16 5 4 5 6 11 10 9 10 9 10 12 13 15 16 20 25 19 9 10 15 12 13 21 24 14 9 12 17 23 27 26 24 20 11 8 9 8 6 7 7 5 4 5 3 3 5 4 2 1 6 15 14 8 7 7 5 9 21 31 27 18 18 23 21 17 17 20 23 22 19 22 23 18 14 16 15 15 19 21 19 16 11 10 11 12 12 13
18 6 2 4 6 10 10 9 10 9 8 11 16 19 18 20 22 17 9 8 17 20 15 16 19 14 9 15 24 29 30 26 23 20 11 7 8 9 7 7 9 9 8 6 4 4 6 4 3 4 9 13 7 4 6 6 1 10 20 26 25 21 22 22 18 19 23 22 17 16 19 22 20 14 15 19 18 18 19 18 15 14 10 10 12 13 13 13
Wind_Direction
9 7 4 3 2 3 4 5 6 6 6 6 7 7 9 11 11 10 8 4 0 2 359 300 232 233 223 187 149 39 32 40 71 82 75 44 20 19 12 9 11 9 13 12 22 57 349 1 2 22 107 94 22 292 15 26 60 53 84 83 96 173 204 185 178 194 175 194 205 209 188 149 174 181 163 70 46 60 55 5 320 328 344 185 138 131 147 160
7 5 3 1 359 359 359 359 1 2 2 2 2 2 4 7 7 6 5 1 355 356 355 328 249 230 218 210 223 339 347 343 57 63 54 39 18 18 16 13 12 13 19 18 26 41 34 350 337 17 66 58 357 336 32 18 57 82 114 77 230 200 210 192 175 192 183 152 187 209 173 174 204 164 154 185 235 164 164 256 331 336 310 162 150 145 153 164
5 3 1 359 357 357 356 356 356 357 359 359 359 359 0 2 4 2 1 359 352 351 351 339 269 235 222 225 239 325 337 328 23 33 29 26 21 19 19 18 12 15 21 23 25 30 45 44 319 42 56 56 1 6 38 11 42 144 111 76 245 218 235 227 178 199 231 116 153 213 145 199 227 147 159 189 183 204 203 210 203 220 214 188 180 165 162 168
1 360 358 357 356 354 353 353 352 353 355 356 356 356 356 357 360 359 358 357 351 348 348 342 304 250 229 230 237 309 342 24 228 244 29 19 18 11 15 18 11 15 22 30 34 32 44 61 80 70 67 57 341 21 51 344 9 132 102 142 231 189 261 244 188 208 233 118 140 168 109 256 233 143 180 156 150 241 236 219 202 203 190 180 192 182 172 172
357 355 355 353 352 351 350 349 348 349 349 351 353 352 352 353 356 357 356 356 349 345 349 343 323 279 236 227 232 301 353 51 235 226 118 17 12 357 0 11 8 12 20 30 41 54 45 35 54 48 52 62 349 28 56 303 81 71 91 200 221 146 245 255 192 195 163 105 99 120 180 214 159 164 193 165 192 230 227 231 217 204 181 176 179 178 175 173
353 351 350 348 347 346 345 345 344 344 344 345 348 348 349 349 352 354 353 354 347 339 348 343 327 308 236 218 229 303 28 166 250 197 212 288 12 350 356 2 9 18 16 30 40 56 46 25 48 53 45 58 11 42 351 298 35 58 307 265 224 178 233 275 171 188 144 123 144 174 202 153 137 251 214 186 221 226 228 257 222 189 172 170 162 164 174 177
349 347 345 343 342 341 341 341 340 340 341 341 343 346 346 346 349 350 350 352 344 333 342 343 332 319 218 203 225 20 66 243 258 193 251 321 330 340 3 1 11 13 10 30 30 61 67 37 59 108 81 70 170 153 279 307 20 81 125 274 208 190 229 257 236 177 153 172 202 171 146 153 185 241 155 208 233 242 320 280 173 152 149 156 156 164 180 181
344 343 340 340 337 337 336 336 337 337 338 338 340 343 343 343 345 346 347 349 342 328 334 337 323 316 163 175 190 10 339 250 242 234 269 300 306 333 359 7 17 15 52 44 34 105 94 49 89 147 77 85 167 146 339 339 20 76 153 234 203 207 244 266 291 234 198 210 193 125 169 215 206 206 236 235 237 233 26 84 120 132 138 155 169 175 182 182
339 337 337 336 334 334 333 333 335 335 335 336 338 340 340 341 342 343 343 345 340 323 329 330 287 181 149 133 98 12 285 230 204 267 280 282 301 331 353 22 27 31 66 55 45 82 83 74 174 176 143 154 152 122 356 7 338 179 168 209 223 254 273 286 259 241 216 218 129 148 228 268 259 291 270 248 223 139 100 104 124 137 149 170 177 182 182 183
333 332 332 331 331 332 331 331 332 333 333 333 335 337 338 338 339 340 340 342 336 319 325 321 263 184 170 106 86 16 261 159 249 279 300 287 302 330 7 32 31 44 70 62 50 57 81 165 168 141 134 128 131 128 3 72 155 186 175 218 229 271 294 289 250 264 234 213 175 185 243 278 337 320 265 260 166 141 121 125 151 153 167 180 182 193 189 194
327 329 327 325 327 328 328 330 330 331 331 331 333 334 335 336 337 337 338 339 330 320 321 308 272 211 199 96 114 210 235 152 247 315 318 290 350 11 40 39 33 57 78 73 67 67 100 150 140 116 107 126 135 64 283 172 122 146 159 275 284 319 308 263 269 276 221 208 178 174 239 269 23 255 246 232 156 156 143 155 177 172 183 186 188 201 198 208
321 324 324 323 323 323 325 326 327 329 328 330 330 331 334 334 334 335 337 337 322 325 321 294 271 214 195 68 164 211 212 180 227 328 334 340 66 63 51 41 41 57 80 91 96 95 107 141 121 91 349 145 143 22 165 160 98 127 72 318 300 355 12 222 276 267 192 202 170 155 272 259 200 228 249 162 155 147 147 171 187 188 194 194 200 209 209 216
316 319 321 321 320 320 322 323 325 326 325 327 328 329 332 331 332 333 336 333 310 327 330 295 255 202 132 317 224 204 202 196 212 254 20 45 80 73 50 44 55 60 76 103 118 114 111 140 109 101 121 102 105 261 102 47 52 210 56 63 310 357 4 218 70 17 169 187 178 148 291 261 221 232 234 146 155 139 161 194 196 199 203 204 211 212 218 220
312 313 315 316 317 317 318 321 322 323 324 325 326 327 329 330 329 330 333 323 297 319 326 299 239 186 105 263 242 207 213 203 202 228 56 58 93 87 54 54 71 75 80 94 111 109 103 119 99 94 91 85 128 218 39 9 20 340 354 51 10 356 288 275 326 151 170 192 145 126 260 266 257 249 207 169 168 159 184 207 201 206 208 209 215 213 221 222
309 309 311 311 312 315 316 318 320 322 323 324 326 327 329 329 325 328 330 308 296 311 314 284 209 151 34 281 272 234 227 214 214 228 130 51 89 100 61 75 92 87 83 86 99 100 98 108 91 79 350 3 51 58 18 349 5 27 332 309 343 340 274 299 286 182 199 310 51 127 230 272 276 268 203 176 178 178 197 209 204 210 210 210 217 213 221 227
308 307 308 308 309 312 315 316 319 321 322 325 326 326 328 327 321 324 323 298 299 301 302 217 190 132 41 274 286 277 238 216 215 219 206 44 69 96 94 100 95 86 88 89 95 94 77 80 72 65 148 47 66 80 38 4 343 3 42 254 277 250 291 315 314 224 232 67 338 203 232 276 277 278 204 182 185 193 211 217 213 214 211 211 215 214 216 222
308 307 307 307 306 309 315 316 319 321 323 326 327 327 330 325 319 321 318 304 307 287 127 134 163 130 287 254 271 291 250 195 195 198 193 113 62 86 111 103 81 81 88 86 90 78 33 49 64 311 50 53 77 90 39 349 308 327 12 254 255 237 263 300 305 313 27 157 226 226 232 258 264 258 200 196 193 197 216 222 219 216 212 213 213 214 216 214
308 307 306 306 305 308 314 317 319 322 324 327 331 330 327 322 319 319 305 307 356 54 89 62 92 104 281 265 242 272 242 171 182 177 181 150 64 76 113 106 98 83 55 38 42 43 0 23 63 354 16 11 44 90 117 246 229 254 259 249 278 272 243 254 274 292 55 237 238 218 237 257 267 268 229 200 194 204 219 223 222 218 212 215 215 215 217 216
306 306 306 307 306 306 311 318 321 324 327 329 335 335 328 329 335 316 317 29 78 106 194 236 144 150 249 278 278 313 87 127 169 192 179 148 107 96 103 92 96 88 55 10 333 22 47 29 50 52 291 274 218 158 190 209 186 204 213 193 231 264 262 240 239 262 318 298 263 237 238 257 270 274 259 210 193 214 227 227 230 223 213 214 217 219 216 217
305 305 307 308 307 306 310 317 321 326 331 335 343 347 347 1 1 330 341 347 211 197 226 231 214 236 266 289 295 141 127 178 198 195 159 153 142 115 93 56 52 59 99 178 263 20 85 42 243 220 229 233 222 193 180 174 147 144 153 181 227 239 268 262 237 285 354 252 269 253 242 257 264 271 271 231 187 221 230 228 234 223 216 216 215 220 217 218
306 307 308 308 307 307 308 315 321 327 333 342 352 2 66 114 355 307 322 298 262 240 254 245 218 257 266 264 275 155 133 297 280 197 161 162 128 140 260 32 80 282 264 181 217 12 61 232 237 224 221 215 200 168 132 123 120 112 169 215 264 237 257 273 266 319 350 169 269 283 268 262 259 266 273 249 197 228 222 220 236 224 219 222 216 221 218 213
306 306 306 307 308 307 307 314 321 325 329 342 0 65 134 139 163 200 2 300 291 273 246 260 238 265 261 235 232 117 73 289 299 280 178 150 82 192 243 66 142 211 303 107 142 356 8 250 244 223 185 113 90 123 116 115 127 114 147 188 270 252 272 292 316 356 350 175 272 298 289 270 264 262 266 257 234 239 221 214 233 224 218 225 219 221 213 204
302 303 305 308 310 307 307 314 316 321 329 343 15 111 136 131 146 153 111 284 292 293 250 243 214 241 256 248 209 156 165 228 267 283 184 150 105 196 164 116 154 185 23 165 176 185 247 257 254 190 139 110 80 92 103 95 121 155 157 188 257 268 298 284 310 344 303 229 274 289 282 268 263 257 261 266 253 248 234 226 236 224 221 228 219 215 207 203
296 301 305 309 311 307 310 318 313 317 329 2 56 118 140 138 142 149 100 314 290 293 259 217 197 203 203 211 178 162 192 207 201 267 177 151 142 165 161 152 147 191 236 192 173 202 237 244 164 109 118 126 124 121 129 145 251 252 205 207 242 255 237 239 293 329 316 321 322 307 294 274 252 241 255 294 343 273 250 246 253 234 227 237 226 213 208 207
290 297 306 313 315 311 315 320 315 337 352 82 114 118 132 148 151 138 62 31 295 297 285 226 207 205 183 124 149 165 157 219 215 224 177 156 149 147 179 161 157 215 218 156 155 234 259 240 132 121 101 119 148 191 190 174 208 297 236 214 228 241 249 274 336 347 348 330 330 9 325 287 259 219 254 289 340 283 251 245 258 247 224 228 229 221 211 208
289 296 309 311 305 308 310 304 308 49 25 139 150 129 138 165 171 157 75 48 290 279 276 201 182 181 169 122 148 158 121 277 268 160 153 166 166 141 149 165 59 212 179 133 157 234 267 1 88 138 143 134 172 237 232 170 138 298 256 206 208 201 232 316 2 357 308 263 302 47 332 275 272 196 248 259 276 278 264 246 257 256 231 222 228 224 209 206
290 297 309 307 303 312 303 228 255 265 175 165 165 164 160 165 176 194 36 22 282 240 165 221 236 153 172 182 150 143 182 268 356 68 112 145 203 85 150 208 129 202 182 130 219 241 155 69 55 104 113 136 190 249 226 155 129 243 237 127 121 119 152 175 93 339 247 268 304 204 172 274 277 239 253 252 245 273 274 265 264 256 237 230 229 223 210 206
286 291 305 310 317 315 278 242 263 185 159 147 152 177 156 158 177 135 64 303 276 198 132 260 106 123 157 61 82 117 228 286 99 252 346 79 185 71 178 224 177 190 189 140 218 261 124 153 175 137 113 176 207 229 196 158 147 238 201 124 108 116 148 146 120 218 273 358 296 223 153 277 273 250 328 22 208 255 266 262 264 258 244 234 229 222 212 207
277 287 300 302 307 301 270 254 248 179 147 130 128 140 149 166 177 68 88 234 270 48 92 59 128 99 39 75 50 49 342 344 129 264 343 69 78 71 172 210 150 161 195 146 223 259 96 196 191 148 154 214 211 225 190 164 181 205 145 109 74 74 85 90 111 176 31 324 266 222 168 233 275 228 121 77 204 237 250 255 261 263 256 237 227 223 209 200
273 284 291 274 285 293 273 267 253 199 171 153 134 136 145 152 104 92 211 237 257 242 118 112 173 164 97 118 279 320 258 269 288 356 10 69 15 34 127 173 101 120 318 350 269 259 331 259 181 152 181 191 142 93 91 123 141 139 108 65 32 37 49 52 54 73 40 276 268 227 182 191 285 251 160 172 211 205 215 247 265 270 270 251 226 219 200 196
279 283 278 256 268 285 277 282 258 191 186 177 156 144 136 75 80 158 226 242 258 246 159 174 217 116 127 152 211 216 176 269 264 125 137 153 27 36 78 163 89 79 346 319 282 297 342 345 215 227 163 129 100 77 45 60 100 109 88 53 11 338 11 20 356 42 59 255 271 243 184 185 247 248 195 231 253 213 196 226 249 259 270 256 218 215 200 197
278 274 268 252 257 268 263 272 296 160 176 164 155 128 101 64 220 191 231 275 268 222 169 183 226 140 156 158 210 189 171 240 214 161 163 156 166 182 199 193 161 95 303 247 267 333 302 225 230 253 170 139 111 83 14 359 53 96 94 77 42 325 352 346 313 53 224 251 263 172 167 216 248 246 231 241 254 240 219 222 236 254 271 264 210 215 205 194
268 260 257 254 251 256 256 256 272 276 184 162 153 68 84 196 233 183 189 238 231 217 131 113 86 130 139 126 245 203 162 225 197 164 172 141 173 229 249 219 171 168 249 211 263 341 292 291 123 164 246 173 151 159 220 265 138 145 147 132 144 139 21 275 276 278 268 272 249 164 156 259 270 261 230 227 234 237 234 234 238 255 271 260 224 212 203 197
261 250 249 257 247 246 247 245 256 257 202 171 125 68 115 222 234 164 193 221 228 3 47 95 80 88 143 185 235 198 180 232 175 147 180 133 162 236 243 229 197 147 116 147 172 183 246 288 217 178 235 179 178 195 167 141 145 173 155 138 157 155 172 227 234 246 277 294 251 186 185 236 260 280 220 213 233 246 253 258 256 270 262 238 230 212 202 200
255 247 250 254 241 238 233 230 240 237 212 183 108 120 201 220 202 167 204 211 205 27 37 56 86 100 235 260 262 225 208 237 139 129 181 174 187 212 199 206 197 158 131 170 219 167 213 265 251 192 340 162 179 219 108 113 134 210 128 117 180 183 170 210 218 201 267 316 276 199 222 230 217 266 244 212 258 263 267 272 265 271 260 213 226 220 205 200
242 236 239 234 232 233 221 218 226 219 211 162 131 203 224 214 171 182 195 171 177 154 117 21 92 135 251 271 255 243 207 221 145 140 208 211 218 216 200 209 192 179 179 176 192 169 192 273 289 46 350 145 164 197 117 134 182 169 135 175 215 184 132 142 268 11 61 300 273 226 253 273 301 277 249 185 257 258 255 258 251 252 252 220 235 225 204 203
227 225 225 220 228 229 214 213 210 200 196 146 193 221 220 207 187 179 170 152 158 136 134 207 203 176 219 236 224 209 170 196 183 167 211 221 233 207 197 238 195 187 199 191 196 208 187 258 260 132 213 272 149 151 63 38 135 130 183 212 198 126 94 102 247 340 30 258 273 271 262 277 287 282 287 133 234 253 251 248 243 240 228 234 242 228 207 206
216 219 230 222 223 217 206 209 197 178 151 164 227 239 214 200 205 176 159 144 133 137 156 208 213 183 194 209 222 187 169 190 181 179 204 211 244 191 164 212 205 193 205 196 208 246 161 236 270 121 185 277 41 113 118 346 93 132 202 218 119 142 166 110 154 245 258 236 275 280 278 277 255 239 256 220 217 232 244 242 230 224 225 231 240 227 207 203
209 219 247 220 217 208 196 196 187 168 161 194 225 242 212 208 241 200 176 161 136 157 186 214 217 199 188 185 189 178 182 193 175 182 206 193 234 204 162 198 208 196 203 184 189 229 133 200 261 302 233 259 54 171 190 203 59 72 294 322 38 162 173 166 155 177 199 213 270 288 292 282 228 184 231 234 209 203 225 235 223 222 226 226 230 221 204 200
195 225 254 189 200 199 185 179 177 175 202 212 225 236 183 211 262 237 211 199 181 179 199 213 209 211 209 191 196 192 194 202 179 185 219 197 223 236 199 197 174 162 189 168 185 196 113 197 230 263 334 205 189 210 196 182 166 151 181 202 231 171 119 220 222 139 148 196 240 277 284 276 238 155 209 225 202 196 208 220 218 219 227 227 223 215 203 202
178 238 225 166 180 180 167 165 196 196 213 236 241 240 194 189 217 230 235 224 224 226 167 172 195 208 204 199 216 189 175 203 190 191 232 215 216 240 212 188 157 144 121 104 196 199 157 196 207 192 235 217 215 233 193 183 172 175 194 195 192 173 124 208 248 213 158 201 209 176 265 275 260 142 194 208 189 200 205 212 218 217 225 227 222 215 204 202
180 237 181 165 171 166 157 180 218 199 223 233 237 249 226 209 200 217 231 220 224 253 94 181 208 210 205 199 194 173 174 200 200 202 235 223 214 227 210 176 157 149 144 146 206 198 126 119 208 226 232 229 246 353 145 191 148 182 218 196 180 171 158 194 230 225 170 210 206 112 263 271 255 139 176 192 186 208 205 199 211 219 224 225 221 217 209 207
204 215 146 166 170 162 155 215 212 210 237 227 240 264 239 226 235 211 210 208 209 208 218 233 215 210 225 205 162 180 196 205 206 201 219 235 226 226 194 159 152 148 146 152 167 131 95 114 213 253 283 320 345 17 53 51 67 233 240 192 176 196 197 206 221 186 166 209 178 98 255 260 256 129 161 205 213 241 222 194 208 222 228 229 222 214 209 209
201 187 108 173 175 168 166 204 201 212 228 227 237 238 226 239 236 222 209 204 203 195 214 232 219 213 230 193 180 208 198 203 224 210 205 230 240 224 174 158 159 169 184 192 175 171 184 168 174 247 292 305 311 335 342 322 181 221 239 189 194 215 210 215 347 150 217 210 164 147 247 253 259 101 122 226 284 264 243 215 215 227 230 227 220 213 207 202
180 143 57 184 185 184 199 213 200 210 217 222 233 230 230 248 235 225 219 214 215 204 220 239 205 196 218 190 212 230 205 210 235 222 210 227 252 260 171 172 181 192 202 192 159 160 179 180 171 206 235 243 247 247 234 209 188 219 246 201 206 213 201 203 233 216 228 211 164 195 241 255 273 265 207 209 262 257 249 229 220 231 236 227 214 209 204 198
178 171 152 184 197 208 229 232 219 224 216 215 228 228 224 234 245 221 211 223 232 219 230 253 188 182 211 204 220 236 225 224 231 230 228 224 233 303 201 190 199 204 183 131 147 150 155 191 198 213 225 229 240 245 197 124 149 203 217 212 212 212 204 210 233 232 230 225 210 229 240 260 275 267 258 255 256 260 265 259 246 235 232 226 218 212 204 200
193 201 180 169 190 216 229 234 223 229 218 189 199 214 216 226 246 228 197 206 215 206 222 248 218 203 215 209 216 231 227 223 228 237 241 236 235 299 342 199 224 243 46 119 170 150 127 221 220 224 231 233 244 250 198 141 186 208 209 217 218 212 204 206 226 235 233 231 240 243 243 250 260 261 264 266 263 265 271 271 264 246 230 218 211 207 200 201
200 211 181 175 182 196 211 217 210 215 219 196 197 221 224 223 226 223 206 195 192 190 201 232 225 221 222 214 214 230 229 224 231 235 239 241 235 236 14 14 247 248 93 100 254 159 161 233 232 230 239 242 249 252 213 170 214 216 207 220 221 211 205 207 224 234 231 228 245 253 250 246 251 257 263 264 263 264 270 275 272 244 230 206 196 201 199 201
205 266 193 185 197 199 204 211 204 205 214 213 211 223 229 230 229 223 184 145 213 200 196 220 227 223 225 222 215 225 226 225 234 234 232 236 228 208 227 259 263 335 155 185 263 188 176 237 240 238 250 250 249 250 223 194 236 243 234 235 227 212 208 213 225 233 233 234 246 254 256 255 256 258 261 265 268 267 274 283 277 242 227 205 204 210 205 205
199 208 198 193 212 211 210 213 202 202 213 213 216 223 226 233 237 233 183 175 213 205 195 222 233 225 220 220 218 227 229 227 235 238 220 210 219 204 209 222 203 71 206 200 228 235 209 233 240 240 254 253 250 249 226 212 232 246 253 251 239 216 215 225 230 236 240 241 245 252 259 262 262 262 263 269 277 278 275 275 269 259 242 217 215 217 210 209
220 227 196 197 216 208 208 210 196 201 215 208 214 223 223 228 233 234 222 202 214 215 200 215 232 233 215 212 217 228 232 230 235 242 224 190 206 210 210 210 179 157 202 203 178 197 202 225 255 192 241 253 253 238 207 202 220 247 253 253 244 223 223 234 235 234 235 239 245 252 256 258 262 269 271 269 269 267 266 266 266 265 250 220 220 224 215 212
228 244 207 225 229 201 201 210 199 201 211 207 212 218 220 226 229 230 236 221 218 224 215 207 221 229 219 219 221 226 232 233 237 245 238 201 211 220 220 211 190 179 183 185 187 186 177 194 216 200 236 255 254 156 145 129 165 252 250 247 242 233 232 239 245 242 235 231 236 244 245 250 260 273 275 271 266 259 258 259 260 262 250 218 219 222 215 213